Regional Weather Roundup
Issued by NWS Upton, NY

Current Version | Previous Version | Graphics & Text | Print | Product List | Glossary Off
Versions: 1 2 3 4 5 6 7 8 9 10 11 12 13 14 15 16 17 18 19 20 21 22 23 24 25 26 27 28 29 30 31 32 33 34 35 36 37 38 39 40 41 42 43 44 45 46 47 48 49 50

000
ASUS41 KOKX 070808
RWROKX

REGIONAL WEATHER ROUNDUP
NATIONAL WEATHER SERVICE NEW YORK NY
300 AM EST WED DEC 07 2016

NOTE: "FAIR" INDICATES FEW OR NO CLOUDS BELOW 12,000 FEET WITH NO
SIGNIFICANT WEATHER AND/OR OBSTRUCTIONS TO VISIBILITY.

NYZ071-072-176-178-NJZ106-104-070900-
NEW YORK CITY METRO AREA

CITY           SKY/WX    TMP DP  RH WIND       PRES   REMARKS
Central Park   LGT RAIN  40  38  93 NE6       29.89R FOG
Wall St Helipt CLOUDY    43  40  89 NE16      29.86R
Bronx Bot Gard NOT AVBL
LaGuardia APRT LGT RAIN  43  40  89 NE12      29.86R FOG
Kennedy INTL   LGT RAIN  43  38  82 NE10      29.86R
Breezy Point     N/A     41 N/A N/A NE13        N/A
Newark/Liberty LGT RAIN  39  38  96 N12       29.87R FOG     WCI  32
Teterboro      DRIZZLE   39  36  89 N6        29.86R FOG     WCI  35
$$

NYZ177-179-078>081-070900-
LONG ISLAND NEW YORK

CITY           SKY/WX    TMP DP  RH WIND       PRES   REMARKS
Jones Beach      N/A     41 N/A N/A NE16        N/A
Matinecock PT    N/A     41 N/A N/A E23         N/A
Farmingdale    LGT RAIN  41  39  93 NE9       29.85R FOG
MacArthur/ISP  LGT RAIN  41  39  93 NE10      29.84R
Shirley        LGT RAIN  41  40  96 VRB3      29.84R
Westhampton    CLOUDY    42  39  89 NE9       29.85S
Southampton    NOT AVBL
Bridgehampton  NOT AVBL
East Hampton   CLOUDY    41  38  87 E9G22     29.83F
Montauk          N/A     42  39  89 NE14G22   29.85F
$$

NYZ052-065-067-070900-
HUDSON VALLEY

CITY           SKY/WX    TMP DP  RH WIND       PRES   REMARKS
White Plains   LGT RAIN  37  35  92 NE7       29.85R FOG     WCI  32
Newburgh       NOT AVBL
Montgomery     LGT RAIN  34  32  92 N7        29.88F FOG     WCI  28
Poughkeepsie   CLOUDY    32  32 100 CALM      29.89F FOG
Albany         LGT SNOW  32  31  96 CALM      29.92R FOG
$$

NJZ001-105-106-008-010-013-015-019>022-104-070900-
NEW JERSEY

CITY           SKY/WX    TMP DP  RH WIND       PRES   REMARKS
Newark/Liberty LGT RAIN  39  38  96 N12       29.87R FOG     WCI  32
Teterboro      DRIZZLE   39  36  89 N6        29.86R FOG     WCI  35
Caldwell       LGT RAIN  37  35  92 NE5       29.88R FOG     WCI  33
Somerville     CLOUDY    38  36  92 NW5       29.87R WCI  34
Linden         DRIZZLE   40  38  93 N5        29.87R
Sussex         LGT RAIN  34  34 100 NE5       29.88S WCI  30
Andover          N/A     33  32  96 VRB3      29.89R
Trenton        CLOUDY    39  37  92 N8        29.86R WCI  33
Millville      CLOUDY    45  45 100 N8        29.84R
Atlantic City  CLOUDY    47  45  93 N7        29.82R
Wrightstown    LGT RAIN  42  41  96 N10       29.84R
Toms River     LGT RAIN  46  44  93 N8        29.85R
Belmar         LGT RAIN  44  43  96 NE12      29.83S
$$

PAZ047>061-062-071-070900-
EASTERN PENNSYLVANIA

CITY           SKY/WX    TMP DP  RH WIND       PRES   REMARKS
Philadelphia   LGT RAIN  42  39  89 N12       29.87S
Allentown      LGT RAIN  38  34  85 E3        29.89R
Scranton       FOG       35  34  96 CALM      29.87R VSB 1/2
$$

CTZ002-004>006-009-010-012-RIZ004-006-007-MAZ004-011-015-070900-
SOUTHERN NEW ENGLAND
 IN CT

CITY           SKY/WX    TMP DP  RH WIND       PRES   REMARKS
Bradley INTL   LGT SNOW  33  31  92 N6        29.91F FOG     WCI  28
Hartford       MIX PCPN  35  34  96 N7        29.91F FOG     WCI  29
Danbury        LGT RAIN  34  32  92 NE5       29.89R FOG     WCI  30
Wtrbury/Oxford CLOUDY    34  30  86 NE8       29.86F WCI  27
Bridgeport     CLOUDY    39  35  86 NE12      29.87  WCI  32
Meriden        LGT RAIN  37  33  85 N5        29.89F WCI  33
New Haven      CLOUDY    37  35  92 N12       29.87F WCI  29
Chester        CLOUDY    36  34  93 NE8G14    29.86F WCI  29
Groton         CLOUDY    41  38  89 NE17      29.86F
Wilimantic     LGT RAIN  36  34  92 NE6       29.91F WCI  31

 IN RI

CITY           SKY/WX    TMP DP  RH WIND       PRES   REMARKS
Providence     LGT RAIN  37  33  85 E9        29.93F WCI  30
Block Island   LGT RAIN  41  38  89 NE20G25   29.85F
Westerly       CLOUDY    39  35  86 NE8       29.88F WCI  33
 IN MA

CITY           SKY/WX    TMP DP  RH WIND       PRES   REMARKS
Boston         LGT RAIN  40  35  83 E16       29.94F WCI  31
Worcester      SNOW      31  30  96 NE8       29.89F VSB 1/2 WCI  23
Westfield      LGT SNOW  33  33 100 N5        29.92S FOG     WCI  29
Provincetown   LGT RAIN  41  33  73 E12       29.95F
Nantucket      CLOUDY    41  36  82 NE9       29.90F
$$

ANZ330-335-338-340-345-350-353-355-070900-
COASTAL MARINE OBSERVATIONS


STATION/POSITION TIME  SKY/WX   TEMP    WIND        PRES    VSBY  WAVE
                                AIR SEA DIR/SP/G                  HT/PER
                 (UTC)          (F)     (DEG/KT/KT) (MB)    (MI)  (FT/S)
NY HARB ENTRANCE 0750            47 53   60/ 19/ 25 1009.5          8/ 6
20 S FIRE ISLAND 0650            47 54   70/ 25/ 31 1007.8          8/ 7
GREAT SOUTH BAY  0730            42 43                N/A
23 SSW MONTAUK P 0750            47 54   80/ 25/ 29 1009.0          7/ 6
15 E BARNEGAT LI 0730               53                N/A          10/ 7
HUDSON CANYON    0650            52 58              1005.5          9/ 7
KINGS POINT      0748            41 48              1011.0
EXECUTION ROCKS  0745            42      40/ 16/ 19   N/A
CENTRAL LI SOUND 0730            41 50   70/ 21/ 25   N/A           3/ 4
EASTERN LI SOUND NOT AVBL
ROBBINS REEF     0748            42      50/ 15/ 18 1011.0
$$


>>>>>>>>>>>>>>>>>>>>>>>>>>>> KEY <<<<<<<<<<<<<<<<<<<<<<<<<<<
>                                                          <
>     SKY/WX - Sky Condition/Present Weather               <
>     TMP    - Temperature in Fahrenheit                   <
>     DP     - Dew Point in Fahrenheit                     <
>     RH     - Relative Humidity in Percent                <
>     WIND   - Direction (from) and Speed in MPH           <
>     PRES   - Mean Sea Level Pressure (inches of Hg)      <
>     WCI    - Wind Chill Index                            <
>     VSB    - VISIBILITY IN MILES                         <
>     HX     - HEAT INDEX                                  <
>     TC     - TEMPERATURE IN CELSIUS                      <
>     VRB    - VARIABLE WIND DIRECTION                     <
>                                                          <
>>>>>>>>>>>>>>>>>>>>>>>>>>>> KEY <<<<<<<<<<<<<<<<<<<<<<<<<<<



USA.gov is the U.S. government's official web portal to all federal, state and local government web resources and services.